x

West Sea Otter (46204) Wave Buoy

11:00 - Thu 5th Mar 2015 All times are PST. -8 hours from GMT.

  • Sig Wave height 8.2ft
  • Peak Period 6s
  • Wind
    22mph, 29mph gusts
  • Sea Temp 49°f
  • Aire Temp 49°f
  • Sea Pressure 1022.6mb
  • West Sea Otter
  • West Sea Otter

More Historic Weather Station data

Upgrade to MSW Pro to gain access to the past 30 days of data for over 8000 Wavebouys and Weather Stations around the globe.

Join Pro

Comparision Forecast

View Surf forecast
   
jue 03/05 11:00 8ft 6s 22 29 mph 1022.6mb 49f 49f
10:00 8.5ft 6s 25 29 mph 1021.8mb 49f 49f
9:00 8ft 6s 27 36 mph 1021.8mb 49f 46f
8:00 8.5ft 6s 29 36 mph 1021.4mb 49f 46f
7:00 8ft 6s 27 36 mph 1021.2mb 49f 46f
6:00 7.5ft 6s 29 36 mph 1021.3mb 49f 46f
5:00 7ft 6s 25 31 mph 1021.6mb 49f 46f
4:00 6ft 5s 25 27 mph 1021.4mb 49f 46f
3:00 6ft 5s 25 31 mph 1021.4mb 49f 48f
2:00 6ft 5s 25 29 mph 1021.7mb 49f 48f
1:00 5ft 4s 27 31 mph 1021.8mb 49f 47f
12:00 4.5ft 4s 25 31 mph 1022.1mb 49f 47f
mié 03/04 11:00 4.5ft 14s 22 27 mph 1022.6mb 49f 47f
10:00 3.5ft 14s 22 27 mph 1022.7mb 49f 47f
9:00 3.5ft 15s 20 22 mph 1022.9mb 49f 47f
8:00 3.5ft 14s 18 22 mph 1023.2mb 48f 47f
7:00 3ft 10s 16 18 mph 1023.5mb 48f 48f
5:00 3ft 8s 11 13 mph 1023.8mb 48f 47f
4:00 2.5ft 8s 13 18 mph 1024.1mb 48f 47f
3:00 2.5ft 10s 13 16 mph 1024.4mb 49f 48f
1:00 2.5ft 11s 13
mph
1024.7mb 49f 46f
12:00 2ft 11s 9 11 mph 1024.8mb 49f 47f
11:00 2ft 11s 9 11 mph 1024.8mb 49f 47f
10:00 2.5ft 11s 9
mph
1024.9mb 48f 47f
9:00 2.5ft 11s 7 9 mph 1025mb 48f 47f
8:00 2ft 10s 9 11 mph 1024.6mb 48f 46f
7:00 2ft 11s 7 9 mph 1024.7mb 48f 46f
6:00 2ft 12s 9
mph
1024.5mb 48f 46f
5:00 2ft 11s 4 7 mph 1024.7mb 48f 46f
4:00 2ft 12s 2 4 mph 1024.9mb 47f 46f
3:00 2ft 11s 2 4 mph 1025.1mb 48f 46f
2:00 2ft 12s 2 4 mph 1025.2mb 48f 47f
1:00 2ft 12s 4
mph
1024.8mb 48f 47f
12:00 2ft 12s 4
mph
1024.5mb 48f 47f
mar 03/03 11:00 2ft 11s 4
mph
1024.4mb 48f 47f
10:00 2ft 11s 7
mph
1024.6mb 48f 47f
9:00 2ft 12s 7 9 mph 1024.5mb 48f 47f
8:00 2ft 12s 7 9 mph 1024.6mb 48f 47f
7:00 2ft 10s 7 9 mph 1024.9mb 48f 47f
6:00 2ft 12s 4 7 mph 1024.8mb 49f 47f
5:00 2ft 12s 4
mph
1025mb 49f 48f
3:00 2.5ft 11s 7 9 mph 1025.6mb 49f 47f
2:00 2.5ft 11s 4 7 mph 1025.4mb 49f 47f
1:00 2.5ft 11s 2 4 mph 1025.7mb 49f 47f
12:00 2.5ft 12s 2
mph
1025.4mb 49f 47f
11:00 2.5ft 12s 2 4 mph 1025.6mb 48f 46f
10:00 2.5ft 12s 2
mph
1025.4mb 48f 46f
9:00 2.5ft 13s 2 4 mph 1025.3mb 48f 46f
8:00 2.5ft 13s 4 7 mph 1025mb 48f 46f
7:00 2.5ft 12s 9 11 mph 1024.5mb 48f 46f
6:00 2.5ft 12s 9 11 mph 1025mb 48f 46f
5:00 2.5ft 12s 9 11 mph 1024.8mb 48f 46f
4:00 3ft 12s 11 13 mph 1024.3mb 48f 46f
3:00 3.5ft 11s 11 13 mph 1024.3mb 48f 47f
2:00 3.5ft 4s 11 13 mph 1024mb 48f 47f
1:00 4.5ft 11s 16 18 mph 1023.5mb 48f 47f
12:00 4.5ft 12s 18 20 mph 1023mb 48f 47f
lun 03/02 11:00 4.5ft 6s 20 25 mph 1022.8mb 48f 48f
10:00 4ft 5s 18 20 mph 1023.2mb 48f 48f
9:00 4.5ft 7s 18 22 mph 1022.8mb 48f 49f
8:00 4.5ft 7s 18 20 mph 1022.5mb 49f 49f
7:00 4.5ft 7s 18 20 mph 1022.5mb 49f 49f
6:00 4.5ft 7s 18 20 mph 1022.6mb 49f 49f
5:00 4.5ft 7s 20 25 mph 1022.4mb 49f 49f
2:00 5ft 8s 18 22 mph 1022.6mb 49f 48f
1:00 5ft 8s 18 22 mph 1022.6mb 49f 49f
12:00 5.5ft 7s 18 22 mph 1022.4mb 49f 47f
11:00 5.5ft 7s 20 22 mph 1022.3mb 49f 47f
10:00 6ft 7s 18 22 mph 1022mb 49f 47f
9:00 6ft 8s 20 22 mph 1021.6mb 49f 46f
8:00 6ft 8s 20 22 mph 1021.8mb 48f 46f
7:00 6.5ft 8s 20 25 mph 1021.5mb 48f 46f
6:00 6ft 8s 20 25 mph 1021.2mb 49f 46f
5:00 6ft 8s 22 27 mph 1021.2mb 49f 46f
4:00  -   -  22
mph
- - -
3:00 6ft 8s 22 25 mph 1020.8mb 49f 46f
1:00 6.5ft 8s 25 27 mph 1020.8mb 49f 46f
12:00 6.5ft 7s 25 27 mph 1021mb 49f 46f
dom 03/01 11:00 6.5ft 7s 22 27 mph 1020.9mb 49f 46f